Reflectivity
-20 -20 -20 -20 -20 -20 -20 -20 -20 -20 -20 -20 -20 -20 -20 -20 -20 -20 -20 -20 -20 -20 -20 -20 -20 -20 -20 -20 -20 -20 -20 -20 -20 -20 -20 -20 -20 -20 -20 -20 -20 -20 -20
-20 -20 -20 -20 -20 -20 -20 -20 -20 -20 -20 -20 -20 -20 -20 -20 -20 -20 -20 -20 -20 -20 -20 -20 -20 -20 -20 -20 -20 -20 -20 -20 -20 -20 -20 -20 -20 -20 -20 -20 -20 -20 -20
-20 -20 -20 -20 -20 -20 -20 -20 -20 -20 -20 -20 -20 -20 -20 -20 -20 -20 -20 -20 -20 -20 -20 -20 -20 -20 -20 -20 -20 -20 -20 -20 -20 -20 -20 -20 -20 -20 -20 -20 -20 -20 -20
-20 -20 -20 -20 -20 -20 -20 -20 -20 -20 -20 -20 -20 -20 -20 -20 -20 -20 -20 -20 -20 -20 -20 -20 -20 -20 -20 -20 -20 -20 -20 -20 -20 -20 -20 -20 -20 -20 -20 -20 -20 -20 -20
-20 -20 -20 -20 -20 -20 -20 -20 -20 -20 -20 -20 -20 -20 -20 -20 -20 -20 -20 -20 -20 -20 -20 -20 -20 -20 -20 -20 -20 -20 -20 -20 -20 -20 -20 -20 -20 -20 -20 -20 -20 -20 -20
-20 -20 -20 -20 -20 -20 -20 -20 -20 -20 -20 -20 -20 -20 -20 -20 -20 -20 -20 -20 -20 -20 -20 -20 -20 -20 -20 -20 -20 -20 -20 -20 -20 -20 -20 -20 -20 -20 -20 -20 -20 -20 -20
-20 -20 -20 -20 -20 -20 -20 -20 -20 -20 -20 -20 -20 -20 -20 -20 -20 -20 -20 -20 -20 -20 -20 -20 -20 -20 -20 -20 -20 -20 -20 -20 -20 -20 -20 -20 -20 -20 -20 -20 -20 -20 -20
-20 -20 -20 -20 -20 -20 -20 -20 -20 -20 -20 -20 -20 -20 -20 -20 -20 -20 -20 -20 -20 -20 -20 -20 -20 -20 -20 -20 -20 -20 -20 -20 -20 -20 -20 -20 -20 -20 -20 -20 -20 -20 -20
-20 -20 -20 -20 -20 -20 -20 -20 -20 -20 -20 -20 -20 -20 -20 -20 -20 -20 -20 -20 -20 -20 -20 -20 -20 -20 -20 -20 -20 -20 -20 -20 -20 -20 -20 -20 -20 -20 -20 -20 -20 -20 -20
-20 -20 -20 -20 -20 -20 -20 -20 -20 -20 -20 -20 -20 -20 -20 -20 -20 -20 -20 -20 -20 -20 -20 -20 -20 -20 -20 -20 -20 -20 -20 -20 -20 -20 -20 -20 -20 -20 -20 -20 -20 -20 -20
-20 -20 -20 -20 -20 -20 -20 -20 -20 -20 -20 -20 -20 -20 -20 -20 -20 -20 -20 -20 -20 -20 -20 -20 -20 -20 -20 -20 -20 -20 -20 -20 -20 -20 -20 -20 -20 -20 -20 -20 -20 -20 -20
-20 -20 -20 -20 -20 -20 -20 -20 -20 -20 -20 -20 -20 -20 -20 -20 -20 -20 -20 -20 -20 -20 -20 -20 -20 -20 -20 -20 -20 -20 -20 -20 -20 -20 -20 -20 -20 -20 -20 -20 -20 -20 -20
-20 -20 -20 -20 -20 -20 -20 -20 -20 -20 -20 -20 -20 -20 -20 -20 -20 -20 -20 -20 -20 -20 -20 -20 -20 -20 -20 -20 -20 -20 -20 -20 -20 -20 -20 -20 -20 -20 -5 9 -20 -20 -2
-20 -20 -20 -20 -20 -20 -20 -20 -20 -20 -20 -20 -20 -20 -20 -20 -20 -20 -20 -20 -20 -20 -20 -20 -20 -20 -20 -20 -20 -20 -20 -20 -20 -20 -20 -20 -20 -20 -20 -20 -20 -20 -19
-20 -20 -20 -20 -20 -20 -20 -20 -20 -20 -20 -20 -20 -20 -20 -20 -20 -20 -20 -20 -20 -20 -20 -20 -20 -20 -20 -20 -20 -20 -20 -20 -20 -20 -20 -20 -20 -19 -20 -20 -20 -20 -20
-20 -20 -20 -20 -20 -20 -20 -20 -20 -20 -20 -20 -20 -20 -20 -20 -20 -20 -20 -20 -20 -20 -20 -20 -20 -20 -20 -20 -17 -2 -20 -20 -20 -20 -20 -20 -8 -20 -20 -18 -20 -7 -19
-20 -20 -20 -20 -20 -20 -20 -20 -20 -20 -20 -20 -20 -20 -20 -20 -20 -20 -20 -20 -20 -20 -20 -20 -20 -20 -19 -3 -2 -8 -19 -20 -20 -14 1 11 12 10 -9 -15 5 -16 -20
-20 -20 -20 -20 -20 -20 -20 -20 -20 -20 -20 -20 -20 -20 -20 -20 -20 -20 -20 -20 -20 -20 -20 -20 -20 -20 -20 -11 8 -2 -9 5 17 21 28 27 6 -17 -5 -5 -1 -11 -18
-20 -20 -20 -20 -20 -20 -20 -20 -20 -20 -20 -20 -20 -20 -20 -20 -20 -20 -20 -20 -20 -20 -20 -20 -20 -20 -20 -17 17 18 1 14 21 22 18 -0 -18 -19 -7 -16 -20 -9 -7
-20 -20 -20 -20 -20 -20 -20 -20 -20 -20 -20 -20 -20 -20 -20 -20 -20 -20 -20 -20 -20 -20 -20 -20 -20 -20 -20 -1 17 23 -14 -2 16 -5 -13 -17 -20 -19 -18 -20 -20 -20 -20
-20 -20 -20 -20 -20 -20 -20 -20 -20 -20 -20 -20 -20 -20 -20 -20 -20 -20 -20 -20 -20 -20 -20 -20 -20 -20 -19 -20 13 22 2 -20 -18 -14 -14 -16 -19 -8 -9 -16 -20 -2 1
-20 -20 -20 -20 -20 -20 -20 -20 -20 -20 -20 -20 -20 -20 -20 -20 -20 -20 -20 -20 -20 -20 -20 -20 -20 -20 -20 -20 -9 19 28 -20 -20 -20 -20 -17 14 8 6 1 -18 -5 -20
-20 -20 -20 -20 -20 -20 -20 -20 -20 -20 -20 -20 -20 -20 -20 -20 -20 -8 -19 -4 -20 -18 -20 -20 -20 -20 -20 -20 -7 8 27 -9 -11 -17 -15 -17 4 22 10 7 -1 -20 -4
-20 -20 -20 -20 -20 -20 -20 -20 -20 -20 -20 -20 -20 -20 -20 -18 -14 -19 -20 -4 -8 -20 -20 -20 -20 -20 -20 -20 -20 6 26 31 -7 -20 -15 -4 -15 1 -17 1 9 6 3
-20 -20 -20 -20 -20 -20 -20 -20 -20 -20 -20 -20 -20 -20 -20 -20 -20 -20 -15 -20 -20 -7 -2 -20 -20 -20 -20 -20 -20 -11 9 18 21 -19 -14 -1 -4 10 15 5 17 -17 7
-20 -20 -20 -20 -20 -20 -20 -20 -20 -20 -20 -20 -20 -20 -20 -20 -20 -4 -16 -5 5 7 -2 7 2 -12 -10 -19 -1 7 7 24 34 15 9 3 -14 -3 6 -2 -3 -20 -20
Wind_Speed
12 13 14 14 14 14 14 14 13 12 9 7 6 4 5 4 4 4 5 5 5 6 6 5 7 6 7 8 10 10 11 9 10 10 9 8 9 8 7 7 7 8 9
12 13 15 15 16 16 16 15 14 13 10 6 4 3 5 3 4 4 5 5 6 6 6 7 7 7 7 9 9 10 8 6 3 3 5 4 4 6 6 5 6 7 6
14 15 16 16 15 16 17 15 15 14 10 8 6 5 5 4 4 5 4 4 5 6 6 7 7 7 7 7 9 8 8 4 3 3 2 3 2 5 3 5 4 5 5
12 13 15 16 16 14 14 14 14 13 11 11 8 9 5 6 4 5 5 5 5 5 5 6 7 8 6 8 8 7 5 3 3 3 0 2 4 3 4 2 3 3 5
10 13 14 13 12 12 12 12 13 12 11 11 8 7 5 3 4 5 7 6 5 6 6 6 7 8 6 8 8 7 6 3 2 2 3 2 2 2 2 4 4 3 3
7 8 8 9 10 9 10 11 12 12 11 11 10 9 7 6 6 6 6 5 5 5 6 6 6 6 7 8 8 8 7 6 4 4 4 4 3 4 3 2 6 5 4
8 9 9 9 9 10 10 10 12 12 12 11 10 10 8 8 8 7 6 7 6 5 7 7 7 6 7 7 7 8 8 7 6 6 4 4 3 2 2 3 4 4 4
9 10 8 8 9 8 8 9 10 11 11 11 10 9 8 6 5 7 5 6 6 6 7 8 7 7 7 7 7 6 6 6 6 7 5 3 3 3 3 3 5 4 3
10 11 10 9 8 8 7 7 8 8 9 8 7 8 7 8 7 7 6 5 5 4 7 8 8 7 7 7 7 5 6 6 6 6 5 4 3 3 3 3 5 3 5
9 10 10 10 9 8 7 6 6 6 6 7 7 6 7 7 7 6 7 7 6 7 7 8 8 8 8 8 8 6 6 7 5 5 7 5 4 4 4 3 3 2 3
8 8 9 9 9 9 9 8 6 6 4 3 4 5 6 6 7 7 7 7 7 7 9 9 9 9 9 9 9 8 8 9 8 7 8 7 7 5 4 3 3 3 2
8 8 8 9 9 9 9 9 8 7 5 4 1 2 3 5 6 7 7 6 7 7 8 9 9 10 10 10 11 10 9 10 10 9 9 8 6 7 6 4 5 4 2
7 7 7 8 8 8 8 8 8 7 6 5 4 3 1 2 4 5 5 6 6 7 8 9 11 11 12 12 12 11 11 11 10 10 10 9 9 7 6 5 5 4 3
7 7 7 7 7 7 7 7 7 7 6 5 5 5 4 3 3 3 4 5 5 7 8 10 11 11 12 13 12 12 12 11 10 10 10 10 10 9 9 6 6 6 5
8 7 6 6 6 6 6 6 5 5 5 5 5 5 5 5 4 4 4 3 4 5 7 8 10 11 11 10 13 13 13 13 12 11 9 9 9 9 10 6 7 7 6
8 7 5 5 5 5 4 4 4 4 5 5 4 4 5 5 4 4 5 4 5 4 5 7 8 8 7 13 17 12 10 11 11 11 10 8 10 9 11 8 9 9 8
8 7 5 4 3 3 2 2 1 2 3 4 4 3 3 5 5 5 6 6 7 5 6 6 7 9 10 15 17 17 9 10 10 10 8 6 6 10 9 10 10 9 8
8 6 3 2 3 4 3 3 2 3 3 3 4 3 3 3 5 5 6 6 6 6 7 6 7 8 6 16 19 19 9 7 8 8 9 11 12 10 10 11 10 9 8
4 3 3 3 4 5 6 5 4 3 4 5 5 5 5 6 5 6 7 7 6 7 8 6 8 9 8 17 19 17 9 8 9 9 11 12 12 17 20 13 11 11 9
3 3 4 2 3 7 6 5 5 5 5 6 7 7 7 7 8 8 8 7 7 8 7 8 9 12 11 16 19 16 8 8 7 9 11 18 14 19 22 13 12 11 10
5 4 4 5 6 7 7 4 4 4 8 9 9 10 9 9 9 9 7 8 9 9 10 10 10 11 11 11 18 19 9 9 9 8 9 9 21 19 22 17 10 10 10
5 6 4 5 5 6 6 6 5 8 9 9 9 10 10 8 7 9 8 8 9 10 10 10 10 9 11 17 17 21 18 17 9 10 9 9 19 20 20 16 15 15 13
4 4 4 4 6 7 7 6 9 10 10 10 9 9 9 8 8 8 8 7 8 8 9 8 9 9 8 9 19 19 20 21 11 9 12 15 16 20 19 21 19 17 9
3 2 4 5 5 6 6 5 8 9 9 9 9 8 8 8 7 6 6 7 7 8 9 9 9 9 8 8 8 7 6 18 14 15 11 12 14 16 13 13 14 9 8
3 2 3 3 5 6 6 6 8 9 8 8 7 8 7 7 7 7 7 7 9 9 8 8 8 8 9 9 12 11 6 3 10 12 8 7 7 8 7 8 7 7 8
3 3 3 3 5 5 5 6 6 7 7 8 6 7 7 7 7 7 7 11 14 15 17 18 13 8 14 13 15 17 16 14 12 9 8 9 10 10 8 8 8 7 10
Wind_Direction
186 186 188 186 182 181 178 173 168 164 159 157 150 155 149 142 137 130 137 143 148 150 145 143 145 142 137 131 130 126 124 120 119 108 90 81 72 68 64 58 62 59 57
189 188 187 187 189 183 183 179 176 171 175 171 158 144 148 150 136 141 145 150 157 164 167 162 163 159 144 143 145 146 138 131 169 124 131 139 120 73 59 61 60 57 54
197 190 190 190 189 189 187 184 179 176 176 166 141 122 119 130 157 163 155 159 164 169 179 176 170 165 164 163 165 168 170 147 155 184 323 162 122 145 100 69 61 59 57
212 192 190 190 190 190 186 186 180 177 176 173 175 177 184 172 182 174 158 156 167 169 173 181 181 175 179 178 181 183 188 198 142 175 230 23 110 177 161 147 89 70 64
200 187 188 187 186 180 183 183 179 178 176 182 189 189 191 161 154 163 163 168 168 176 177 182 185 188 192 195 196 194 206 219 256 225 161 170 153 165 162 159 162 142 91
138 153 159 167 172 171 175 176 178 182 178 185 193 200 196 175 168 175 180 180 179 177 184 185 190 196 202 204 206 212 220 225 236 218 210 206 203 185 177 143 163 170 152
107 124 140 154 160 169 172 176 182 183 185 189 196 204 207 197 198 187 194 184 187 194 191 189 191 196 200 202 206 212 220 220 218 211 213 212 215 194 197 156 149 166 157
91 94 106 127 143 154 166 176 187 187 190 194 202 205 209 210 211 205 202 203 205 201 189 195 199 199 196 196 198 204 210 208 214 211 208 193 183 193 199 187 160 155 166
87 87 89 96 116 132 148 168 175 187 194 201 206 212 212 217 217 216 214 216 211 203 195 199 199 199 199 197 194 197 191 192 182 180 176 172 156 164 170 190 206 203 180
89 85 82 86 89 95 109 124 143 170 186 199 211 215 216 219 225 222 220 222 217 206 201 202 205 202 202 199 198 198 192 190 184 178 177 168 160 151 149 155 173 219 211
96 89 87 84 84 83 84 87 93 109 129 176 203 216 221 224 224 226 226 227 227 218 214 208 205 206 205 203 203 204 194 199 188 186 183 174 165 158 152 144 144 149 184
109 98 91 88 82 77 74 73 72 75 64 66 138 213 222 218 220 226 236 235 234 226 227 218 216 213 211 206 207 204 199 200 195 189 186 177 170 165 161 161 151 146 145
116 104 95 86 79 71 65 66 57 54 46 47 49 61 56 228 232 234 235 234 236 233 225 222 219 216 213 211 211 210 204 205 203 193 190 180 177 170 164 159 153 138 136
116 113 105 95 85 77 68 62 47 30 29 39 44 45 28 5 329 292 262 242 239 239 233 229 231 228 221 214 209 207 205 202 201 195 192 183 184 180 168 168 170 161 151
136 122 114 96 78 74 67 61 55 37 21 26 28 20 7 358 340 317 286 274 251 250 252 248 238 231 224 219 213 208 205 200 194 189 188 186 184 178 183 177 172 169 177
141 128 104 89 81 71 68 59 34 27 1 12 15 359 350 346 336 326 310 288 259 243 242 240 237 226 219 214 209 204 206 202 197 186 179 174 179 190 188 183 183 186 187
152 137 124 104 72 39 34 54 17 341 344 336 329 341 344 325 322 318 306 292 278 252 220 235 233 226 223 220 208 201 198 194 190 180 173 176 193 195 185 185 182 188 197
137 142 117 4 22 354 354 332 274 287 289 288 284 281 284 288 295 291 286 284 275 267 256 221 223 230 228 229 216 198 181 176 177 176 179 186 190 187 188 180 180 185 186
94 73 350 324 335 341 345 341 331 304 300 292 293 306 293 287 281 273 274 273 266 261 254 249 222 218 217 223 214 195 179 188 186 187 190 196 195 195 194 190 179 187 177
73 27 355 1 14 13 351 344 345 334 316 316 317 313 304 290 284 282 275 264 252 257 254 249 243 239 236 224 219 202 182 193 195 199 205 206 201 201 197 193 182 185 188
57 34 37 47 14 353 337 340 323 6 344 333 319 309 306 296 288 284 270 262 255 256 248 244 240 234 228 229 227 206 195 198 200 198 200 204 206 202 196 193 187 192 183
45 27 48 41 14 5 15 12 11 341 330 322 309 302 302 299 290 282 273 262 255 253 249 248 245 236 233 230 228 232 199 201 194 199 201 201 205 202 202 189 196 189 180
57 34 39 30 26 17 17 7 348 339 331 323 317 308 296 292 283 273 265 259 253 250 249 243 243 237 227 230 232 229 208 204 193 196 202 197 197 204 210 205 189 189 188
76 37 39 39 22 9 9 359 336 334 325 318 319 314 310 296 283 271 265 257 250 250 250 245 243 240 229 222 217 220 225 210 191 192 197 197 200 202 197 206 186 192 192
100 61 44 31 13 356 358 355 343 334 328 322 323 327 321 320 305 287 276 265 260 253 252 247 244 232 226 222 217 210 201 224 188 176 173 182 187 194 183 188 191 171 183
70 54 47 22 3 350 339 340 336 335 332 331 333 322 323 320 315 307 297 277 273 263 258 248 242 239 242 237 220 218 214 206 194 172 176 180 187 194 187 180 176 181 182